STARLINK-34492

Last updated on Thu Jul 03 2025 00:02:07 GMT+0000 (Coordinated Universal Time)

1 64473U 25133B 25183.58335648 -.01032809 00000+0 -51153-2 0 9990 2 64473 53.1557 210.8520 0000886 61.2483 276.3695 15.83866269 2729
UTC large
Height (km)
Speed (km/s)
/
Latitude / Longitude
Inclination (degrees)
Orbital Period (minutes)
Azimuth
Elevation
Range (km)
Doppler Factor

Next 0 passes for location: London (51.5072 / 0.1276)

Sorry there are no passes over London.